TimeGMT,TemperatureF,Dew PointF,Humidity,Sea Level PressureIn,VisibilityMPH,Wind Direction,Wind SpeedMPH,Gust SpeedMPH,PrecipitationIn,Events,Conditions,WindDirDegrees,DateUTC
12:50 AM,37.4,33.8,87,30.39,-9999.0,NE,12.7,-,N/A,,Overcast,50,2013-02-26 00:50:00
1:50 AM,37.4,33.8,87,30.39,6.2,NNE,9.2,-,N/A,,Mostly Cloudy,30,2013-02-26 01:50:00
2:50 AM,37,33,79,30.40,7,NE,12.7,,,,Overcast,40,2013-02-26 02:50:00
2:50 AM,37.4,33.8,87,30.39,6.2,NE,12.7,-,N/A,,Overcast,40,2013-02-26 02:50:00
3:50 AM,37.4,33.8,87,30.39,-9999.0,NE,11.5,-,N/A,,Overcast,40,2013-02-26 03:50:00
4:50 AM,37.4,33.8,87,30.39,-9999.0,NE,12.7,-,N/A,,Overcast,40,2013-02-26 04:50:00
5:50 AM,37,35,87,30.42,2,NE,10.4,,,Rain,Light Drizzle,40,2013-02-26 05:50:00
5:50 AM,37.4,33.8,87,30.39,2.5,NE,10.4,-,N/A,,Light Drizzle,40,2013-02-26 05:50:00
6:50 AM,37.4,35.6,93,30.42,3.1,ENE,10.4,-,N/A,,Light Drizzle,60,2013-02-26 06:50:00
7:50 AM,39.2,35.6,87,30.45,3.1,NE,10.4,-,N/A,,Light Drizzle,50,2013-02-26 07:50:00
8:50 AM,38,35,85,30.49,3,ENE,10.4,,,Rain,Light Drizzle,60,2013-02-26 08:50:00
8:50 AM,39.2,35.6,87,30.48,3.1,ENE,10.4,-,N/A,,Haze,60,2013-02-26 08:50:00
9:50 AM,39.2,35.6,87,30.48,2.8,ENE,9.2,-,N/A,,Light Drizzle,70,2013-02-26 09:50:00
10:50 AM,39.2,35.6,87,30.51,2.5,ENE,12.7,-,N/A,,Light Drizzle,60,2013-02-26 10:50:00
11:50 AM,40,36,81,30.53,2,ENE,11.5,,,Rain,Light Drizzle,70,2013-02-26 11:50:00
11:50 AM,39.2,35.6,87,30.51,2.5,ENE,11.5,-,N/A,,Light Drizzle,70,2013-02-26 11:50:00
12:50 PM,41.0,35.6,81,30.51,3.1,ENE,10.4,-,N/A,,Haze,70,2013-02-26 12:50:00
1:50 PM,41.0,35.6,81,30.51,3.1,ENE,11.5,-,N/A,,Haze,70,2013-02-26 13:50:00
2:50 PM,40,36,79,30.52,3,ENE,11.5,,,,Haze,60,2013-02-26 14:50:00
2:50 PM,41.0,35.6,81,30.51,3.1,ENE,11.5,-,N/A,,Haze,60,2013-02-26 14:50:00
3:50 PM,41.0,35.6,81,30.51,3.1,ENE,12.7,-,N/A,,Haze,60,2013-02-26 15:50:00
4:50 PM,41.0,35.6,81,30.51,2.5,NE,9.2,-,N/A,,Haze,50,2013-02-26 16:50:00
5:50 PM,40,35,77,30.55,3,NE,9.2,,,,Haze,40,2013-02-26 17:50:00
5:50 PM,41.0,35.6,81,30.54,2.8,NE,9.2,-,N/A,,Haze,40,2013-02-26 17:50:00
6:50 PM,41.0,35.6,81,30.54,2.8,ENE,11.5,-,N/A,,Haze,60,2013-02-26 18:50:00
7:50 PM,39.2,35.6,87,30.54,2.8,NE,11.5,-,N/A,,Haze,50,2013-02-26 19:50:00
8:50 PM,39,35,82,30.57,4,NE,10.4,,,,Overcast,50,2013-02-26 20:50:00
8:50 PM,39.2,35.6,87,30.54,3.7,NE,10.4,-,N/A,,Overcast,50,2013-02-26 20:50:00
9:50 PM,39.2,35.6,87,30.54,6.2,NE,11.5,-,N/A,,Overcast,50,2013-02-26 21:50:00
10:50 PM,39.2,35.6,87,30.57,3.1,NE,9.2,-,N/A,,Overcast,50,2013-02-26 22:50:00
11:50 PM,38,35,82,30.58,6,NE,12.7,,,,Overcast,50,2013-02-26 23:50:00
11:50 PM,37.4,33.8,87,30.57,5.6,NE,12.7,-,N/A,,Overcast,50,2013-02-26 23:50:00